Weather observations for the past three days for
Whiteville, Columbus County Municipal Airport
Metric (Imperial)
Date Time (edt) Wind (kph) Vis. (km) Weather Sky Cond. Temperature (ºC) Relative Humidity Wind Chill (°C) Heat Index (°C) Pressure Precipitation (cm)
Air Dwpt 6 hour altimeter (cm) sea level (mb) 1 hr 3 hr 6 hr
Max. Min.
01 16:35 Vrbl 6 16.09 Partly Cloudy SCT050 34 22 50% 38 76.35 0.0
01 16:15 Vrbl 7 16.09 Partly Cloudy SCT050 34 22 50% 38 76.35 0.0
01 15:55 Vrbl 6 16.09 A Few Clouds FEW060 FEW070 34 22 50% 38 76.38 0.0
01 15:35 Vrbl 4 16.09 Mostly Cloudy FEW060 BKN070 33 22 52% 37 76.38 0.0
01 15:15 Vrbl 4 16.09 A Few Clouds FEW047 FEW060 34 22 50% 38 76.4 0.0
01 14:55 S 6 16.09 Mostly Cloudy BKN043 33 22 52% 37 76.43 0.0
01 14:35 SE 9 16.09 Mostly Cloudy BKN043 33 23 56% 38 76.43 0.0
01 14:15 Vrbl 2 16.09 A Few Clouds FEW065 33 23 56% 38 76.43 0.0
01 13:55 S 6 16.09 Partly Cloudy FEW040 FEW047 SCT075 33 22 33.7 23.1 52% 37 76.45 0.0
01 13:35 Vrbl 6 16.09 Partly Cloudy SCT048 SCT060 SCT075 33 23 56% 38 76.45 0.0
01 13:15 NE 6 16.09 A Few Clouds FEW047 33 23 56% 38 76.48 0.0
01 12:55 Vrbl 4 16.09 Fair CLR 32 23 59% 37 76.48 0.0
01 12:35 Vrbl 2 16.09 Fair CLR 32 23 59% 37 76.5 0.0
01 12:15 Vrbl 4 16.09 Fair CLR 31 23 62% 35 76.5 0.0
01 11:55 NW 7 16.09 Fair CLR 31 24 66% 37 76.53 0.0
01 11:35 NW 6 16.09 Fair CLR 30 24 70% 35 76.53 0.0
01 11:15 Vrbl 6 16.09 Fair CLR 30 24 70% 35 76.56 0.0
01 10:55 Vrbl 9 16.09 Fair CLR 30 24 70% 35 76.56 0.0
01 10:35 W 7 16.09 Fair CLR 29 24 74% 34 76.56 0.0
01 10:15 N 7 16.09 Fair CLR 28 24 79% 32 76.56 0.0
01 09:55 Vrbl 6 16.09 Fair CLR 27 24 84% 30 76.56 0.0
01 09:35 Vrbl 4 16.09 Fair CLR 26 24 89% 28 76.56 0.0
01 09:15 NW 6 16.09 Fair CLR 26 24 89% 28 76.56 0.0
01 08:55 W 6 16.09 Fair CLR 25 24 94% 26 76.56 0.0
01 08:35 Vrbl 2 16.09 Fair CLR 25 24 94% 26 76.56 0.0
01 08:15 SW 4 16.09 A Few Clouds FEW001 24 24 100% 23 76.56 0.0
01 07:55 Calm 2.01 Fog/Mist BKN001 23 23 23.3 21.9 100% 76.53 0.0
01 07:35 Calm 1.21 Fog/Mist OVC001 23 23 100% 76.5 0.0
01 07:15 Calm 4.02 Fog/Mist BKN001 23 22 94% 76.5 0.0
01 06:55 Calm 0.24 Fog VV000 23 22 94% 76.5 0.0
01 06:35 N 2 0.24 Fog VV000 23 22 94% 76.48 0.0
01 06:15 Calm 0.24 Fog OVC001 23 22 94% 76.48 0.0
01 05:55 SE 2 12.87 Overcast OVC001 23 22 94% 76.45 0.0
01 05:35 N 2 1.61 Fog/Mist OVC001 22 22 100% 76.45 0.0
01 05:15 SE 4 1.61 Fog/Mist CLR 22 22 100% 76.45 0.0
01 04:55 SE 2 6.44 Fog/Mist CLR 22 22 100% 76.45 0.0
01 04:35 Calm 9.66 Fog/Mist CLR 23 22 94% 76.45 0.0
01 04:15 W 2 1.21 Fog/Mist SCT001 22 22 100% 76.48 0.0
01 03:55 SW 2 1.61 Fog/Mist CLR 22 22 100% 76.48 0.0
01 03:35 Calm 2.01 Fog/Mist CLR 23 23 100% 76.48 0.0
01 03:15 S 2 3.22 Fog/Mist CLR 23 22 94% 76.5 0.0
01 02:55 Calm 2.41 Fog/Mist CLR 23 23 100% 76.5 0.0
01 02:35 W 2 6.44 Fog/Mist CLR 23 23 100% 76.5 0.0
01 02:15 W 2 8.05 Fog/Mist CLR 23 23 100% 76.5 0.0
01 01:55 W 2 16.09 Fair CLR 23 23 27.7 22.7 100% 76.5 0.0
01 01:35 SE 2 4.83 Fog/Mist CLR 23 23 100% 76.53 0.0
01 01:15 NE 2 14.48 Fair CLR 24 23 94% 23 76.53 0.0
01 00:55 SE 2 16.09 Fair CLR 24 23 94% 23 76.53 0.0
01 00:35 Calm 16.09 Fair CLR 24 24 100% 23 76.53 0.0
01 00:15 SE 2 14.48 Fair CLR 24 24 100% 23 76.53 0.0
31 23:55 SW 2 16.09 Fair CLR 24 24 100% 23 76.53 0.0
31 23:35 NE 2 16.09 Fair CLR 24 24 100% 23 76.53 0.0
31 23:15 Vrbl 2 16.09 Fair CLR 25 24 94% 26 76.53 0.0
31 22:55 Vrbl 2 16.09 Fair CLR 25 24 94% 26 76.53 0.0
31 22:35 S 2 16.09 Fair CLR 25 24 94% 26 76.53 0.0
31 22:15 S 4 16.09 Fair CLR 25 24 94% 26 76.53 0.0
31 21:55 S 4 16.09 Fair CLR 26 24 89% 28 76.53 0.0
31 21:35 S 4 16.09 Fair CLR 26 24 89% 28 76.5 0.0
31 21:15 S 4 16.09 Fair CLR 26 24 89% 28 76.5 0.0
31 20:55 S 6 16.09 Fair CLR 26 24 89% 28 76.48 0.0
31 20:36 S 6 16.09 Fair CLR 27 24 84% 30 76.48 0.0
31 20:15 S 6 16.09 Fair CLR 27 24 84% 30 76.45 0.0
31 19:35 S 9 16.09 Fair CLR 28 25 84% 33 76.43 0.0
31 19:15 Vrbl 7 16.09 Fair CLR 29 25 79% 35 76.45 0.0
31 18:55 S 13 16.09 Fair CLR 29 25 79% 35 76.45 0.0
31 18:35 SE 15 16.09 Fair CLR 32 24 63% 38 76.43 0.0
31 18:15 E 6 16.09 Fair CLR 33 21 49% 36 76.43 0.0
31 17:55 NE 9 16.09 Fair CLR 32 21 52% 35 76.43 0.0
31 17:35 N 6 16.09 Fair CLR 33 22 52% 37 76.43 0.0
31 17:15 Vrbl 4 16.09 Fair CLR 32 22 55% 36 76.43 0.0
31 16:55 Vrbl 7 16.09 A Few Clouds FEW047 33 22 52% 37 76.43 0.0
31 16:35 N 6 16.09 Fair CLR 32 22 55% 36 76.43 0.0
31 16:15 E 7 16.09 Fair CLR 33 22 52% 37 76.45 0.0
31 15:55 NW 7 16.09 Fair CLR 32 22 55% 36 76.45 0.0
31 15:35 Vrbl 6 16.09 Partly Cloudy SCT040 32 23 59% 37 76.45 0.0
31 15:15 Vrbl 4 16.09 Partly Cloudy SCT040 32 23 59% 37 76.48 0.0
31 14:55 Vrbl 4 16.09 A Few Clouds FEW041 32 22 55% 36 76.5 0.0
31 14:35 E 6 16.09 A Few Clouds FEW043 32 23 59% 37 76.53 0.0
31 14:15 Vrbl 2 16.09 Fair CLR 32 23 59% 37 76.56 0.0
31 13:55 Vrbl 4 16.09 Fair CLR 31 22 31.6 22.9 59% 35 76.58 0.0
31 13:35 Vrbl 4 16.09 Fair CLR 31 23 62% 35 76.58 0.0
31 13:15 E 6 16.09 Fair CLR 31 23 62% 35 76.61 0.0
31 12:55 NE 9 16.09 A Few Clouds FEW031 31 23 62% 35 76.61 0.0
31 12:35 Vrbl 7 16.09 Partly Cloudy FEW029 SCT041 30 23 66% 34 76.61 0.0
31 12:15 E 7 16.09 Partly Cloudy FEW027 SCT032 30 23 66% 34 76.63 0.0
31 11:55 N 9 16.09 Partly Cloudy SCT031 30 23 66% 34 76.63 0.0
31 11:35 E 7 16.09 A Few Clouds FEW021 29 23 70% 33 76.63 0.0
31 11:16 N 9 16.09 Partly Cloudy SCT021 29 24 74% 34 76.61 0.0
31 10:55 NE 7 16.09 Fair CLR 28 24 79% 32 76.63 0.0
31 10:35 E 7 16.09 Fair CLR 28 23 74% 31 76.63 0.0
31 10:15 E 6 16.09 A Few Clouds FEW009 28 24 79% 32 76.61 0.0
31 09:55 Vrbl 4 16.09 Partly Cloudy SCT007 27 24 84% 30 76.61 0.0
31 09:35 E 6 16.09 Mostly Cloudy BKN007 26 24 89% 28 76.61 0.0
31 09:15 NE 4 16.09 Mostly Cloudy BKN005 25 24 94% 26 76.61 0.0
31 08:55 NE 4 16.09 A Few Clouds FEW005 25 24 94% 26 76.61 0.0
31 08:35 NE 6 16.09 Fair CLR 24 23 94% 23 76.61 0.0
31 08:15 NE 4 11.27 Fair CLR 23 23 100% 76.58 0.0
31 07:55 NE 2 8.05 Fog/Mist CLR 23 23 23.5 22.1 100% 76.58 0.0
31 07:35 N 2 4.83 Fog/Mist CLR 23 22 94% 76.56 0.0
31 07:15 NE 4 6.44 Fog/Mist CLR 22 22 100% 76.56 0.0
31 06:55 NW 2 3.22 Fog/Mist SCT003 22 22 100% 76.56 0.0
31 06:35 Calm 9.66 Fog/Mist FEW003 23 22 94% 76.56 0.0
31 06:15 N 4 12.87 A Few Clouds FEW003 23 22 94% 76.56 0.0
31 05:55 N 4 12.87 Fair CLR 23 22 94% 76.56 0.0
31 05:35 N 6 12.87 A Few Clouds FEW002 23 22 94% 76.56 0.0
31 05:15 Calm 11.27 Partly Cloudy SCT002 23 23 100% 76.53 0.0
31 04:55 N 4 12.87 A Few Clouds FEW002 23 23 100% 76.53 0.0
31 04:35 NE 6 9.66 Fog/Mist CLR 23 23 100% 76.5 0.0
31 04:15 NE 4 8.05 Fog/Mist CLR 23 22 94% 76.5 0.0
31 03:56 NW 2 11.27 Fair CLR 23 23 100% 76.5 0.0
31 03:35 N 4 8.05 Fog/Mist CLR 23 23 100% 76.53 0.0
31 03:15 NE 4 11.27 Fog/Mist FEW002 23 23 100% 76.53 0.0
31 02:55 N 6 12.87 A Few Clouds FEW002 23 23 100% 76.53 0.0
31 02:35 NE 2 9.66 Fog/Mist CLR 23 23 100% 76.56 0.0
31 02:15 S 2 12.87 Fair CLR 23 23 100% 76.56 0.0
31 01:55 Calm 14.48 Fair CLR 23 23 25.1 23.2 100% 76.58 0.0
31 01:35 SE 2 16.09 Fair CLR 24 23 94% 23 76.61 0.0
31 01:15 SE 4 16.09 Fair CLR 23 23 100% 76.61 0.0
31 00:55 E 4 11.27 Fair CLR 23 23 100% 76.61 0.0
31 00:35 NE 4 16.09 Fair CLR 23 23 100% 76.63 0.0
31 00:15 E 4 14.48 Fair CLR 23 23 100% 76.63 0.0
30 23:55 E 4 14.48 Fair CLR 24 23 94% 23 76.61 0.0
30 23:35 NE 6 16.09 Fair CLR 24 23 94% 23 76.63 0.0
30 23:15 E 4 14.48 Fair CLR 24 23 94% 23 76.63 0.0
30 22:55 NE 4 14.48 Fair CLR 24 23 94% 23 76.61 0.0
30 22:35 NE 4 16.09 Fair CLR 23 23 100% 76.61 0.0
30 22:15 E 2 14.48 Fair CLR 24 23 94% 23 76.61 0.0
30 21:55 S 4 12.87 Fair CLR 23 23 100% 76.61 0.0
30 21:35 Vrbl 2 16.09 Fair CLR 24 24 100% 23 76.58 0.0
30 21:15 Calm 16.09 Fair CLR 24 23 94% 23 76.58 0.0
30 20:55 S 2 16.09 Fair CLR 24 24 100% 23 76.58 0.0
30 20:35 NE 4 16.09 Fair CLR 24 24 100% 23 76.58 0.0
30 20:15 NE 6 16.09 Fair CLR 25 24 94% 26 76.58 0.0
30 19:55 NE 6 16.09 Fair CLR 25 24 30.8 25.1 94% 26 76.56 0.0
30 19:35 E 6 16.09 Fair CLR 25 24 94% 26 76.56 0.0
30 19:15 NE 4 16.09 Fair CLR 26 24 89% 28 76.56 0.0
30 18:55 NE 6 16.09 Fair CLR 26 24 89% 28 76.58 0.0
30 18:35 NE 7 16.09 A Few Clouds FEW036 FEW044 26 24 89% 28 76.61 0.0
30 18:15 NE 7 16.09 Light Rain FEW017 SCT037 SCT045 26 24 89% 28 76.61 0.0
30 17:55 E 4 16.09 A Few Clouds FEW055 26 24 89% 28 76.61 0.0
30 17:35 Vrbl 4 16.09 Fair CLR 26 24 89% 28 76.63 0.0
30 17:16 Calm 16.09 Fair CLR 26 24 89% 28 76.63 0.0
30 16:55 S 9 16.09 Fair CLR 26 24 89% 28 76.61 0.0
30 16:35 S 13 16.09 Fair CLR 27 24 84% 30 76.58 0.0
30 16:15 SE 13 16.09 Thunderstorm in Vicinity CLR 27 24 84% 30 76.61 0.0
30 15:55 SE 17 16.09 Fair CLR 28 24 79% 32 76.61 0.0
30 15:35 SE 6 16.09 Fair CLR 30 23 66% 34 76.63 0.0
30 15:15 E 7 16.09 Fair CLR 30 22 62% 33 76.63 0.0
30 14:55 NE 4 16.09 Fair CLR 30 22 62% 33 76.63 0.0
30 14:35 Vrbl 6 16.09 Fair CLR 30 23 66% 34 76.63 0.0
30 14:15 Vrbl 9 16.09 Fair CLR 31 22 59% 35 76.63 0.0
30 13:55 SE 9 16.09 Fair CLR 30 23 30.5 22.3 66% 34 76.66 0.0
30 13:35 Vrbl 6 16.09 Fair CLR 30 23 66% 34 76.66 0.0
30 13:15 E 6 16.09 Fair CLR 30 22 62% 33 76.71 0.0
30 12:55 Vrbl 6 16.09 Fair CLR 29 23 70% 33 76.71 0.0
30 12:35 N 7 16.09 A Few Clouds FEW017 29 24 74% 34 76.73 0.0
30 12:15 Vrbl 2 16.09 Partly Cloudy SCT017 SCT025 29 24 74% 34 76.76 0.0
30 11:55 Vrbl 6 16.09 Mostly Cloudy BKN015 BKN021 28 24 79% 32 76.76 0.0
30 11:35 NE 6 16.09 Mostly Cloudy BKN011 BKN016 27 24 84% 30 76.76 0.0
30 11:15 NE 7 16.09 Overcast BKN007 OVC011 26 24 89% 28 76.78 0.0
30 10:55 NE 11 16.09 Overcast OVC005 26 24 89% 28 76.78 0.0
30 10:35 NE 7 16.09 Overcast OVC003 25 24 94% 26 76.78 0.0
30 10:15 NE 7 16.09 Overcast OVC003 25 24 94% 26 76.78 0.0
30 09:55 NE 6 11.27 Overcast OVC003 24 24 100% 23 76.78 0.0
30 09:35 NE 7 11.27 Overcast OVC003 24 23 94% 23 76.78 0.0
30 09:15 N 6 9.66 Fog/Mist OVC001 24 23 94% 23 76.76 0.0
30 08:55 N 11 3.22 Fog/Mist OVC001 23 23 100% 76.76 0.0
30 08:35 NE 9 2.41 Fog/Mist OVC001 23 23 100% 76.73 0.0
30 08:15 N 6 1.21 Fog/Mist OVC001 23 22 94% 76.76 0.0
30 07:55 NE 9 2.82 Fog/Mist OVC001 22 22 22.3 21.5 100% 76.73 0.0
30 07:35 NE 7 2.41 Fog/Mist OVC001 22 22 100% 76.73 0.0
30 07:15 NE 7 4.83 Fog/Mist OVC001 22 22 100% 76.73 0.0
30 06:55 NE 7 6.44 Fog/Mist BKN003 OVC033 22 22 100% 76.73 0.0
30 06:35 NE 7 9.66 Fog/Mist FEW003 SCT033 22 22 100% 76.73 0.0
30 06:15 NE 7 4.83 Fog/Mist FEW003 SCT033 22 21 94% 76.71 0.0
30 05:55 NE 6 8.05 Fog/Mist CLR 22 21 94% 76.71 0.0
30 05:35 NE 6 6.44 Fog/Mist FEW033 22 22 100% 76.68 0.0
30 05:15 NE 6 11.27 Partly Cloudy SCT002 22 22 100% 76.68 0.0
30 04:55 NE 7 9.66 Fog/Mist OVC002 22 22 100% 76.68 0.0
30 04:35 NE 7 9.66 Fog/Mist OVC002 22 22 100% 76.68 0.0
30 04:15 NE 9 9.66 Fog/Mist OVC002 22 22 100% 76.66 0.0
30 03:55 NE 6 8.05 Fog/Mist BKN002 22 22 100% 76.68 0.0
30 03:35 NE 7 1.21 Fog/Mist OVC002 22 22 100% 76.66 0.0
30 03:15 NE 4 4.83 Fog/Mist OVC002 22 22 100% 76.68 0.0
30 02:55 NE 4 9.66 Fog/Mist BKN002 22 22 100% 76.71 0.0
30 02:35 E 4 8.05 Fog/Mist BKN002 OVC100 22 22 100% 76.71 0.0
30 02:15 E 4 12.87 Overcast OVC002 22 22 100% 76.73 0.0
30 01:55 NE 6 12.87 Overcast OVC002 22 22 22.1 21.6 100% 76.73 0.0
30 01:35 N 7 16.09 Mostly Cloudy BKN004 22 22 100% 76.76 0.0
30 01:15 N 7 16.09 Partly Cloudy SCT004 22 22 100% 76.76 0.0
30 00:46 NE 4 16.09 A Few Clouds FEW005 22 22 100% 76.76 0.0
30 00:35 NE 7 16.09 Fair CLR 22 21 94% 76.76 0.0
30 00:15 NE 4 16.09 A Few Clouds FEW001 22 22 100% 76.76 0.0
29 23:55 W 2 16.09 Fair CLR 22 21 94% 76.76 0.0 0.03
29 23:35 E 2 16.09 Fair CLR 22 21 94% 76.76 0.0
29 23:15 W 4 16.09 Fair CLR 22 21 94% 76.76 0.0
29 22:55 Calm 16.09 Fair CLR 22 21 94% 76.76 0.0
29 22:35 SE 2 16.09 Fair CLR 22 21 94% 76.76 0.0
29 22:15 Vrbl 2 16.09 A Few Clouds FEW017 22 21 94% 76.76 0.0
29 21:55 Vrbl 2 16.09 A Few Clouds FEW017 22 21 94% 76.73 0.0
29 21:35 E 4 16.09 Fair CLR 22 21 94% 76.68 0.0
29 21:15 N 9 16.09 Fair CLR 22 21 94% 76.68 0.0
29 20:55 NE 7 16.09 Fair CLR 22 21 94% 76.66 0.0
29 20:35 N 7 16.09 Fair CLR 22 21 94% 76.66 0.0
29 20:15 Calm 16.09 Light Rain CLR 22 21 94% 76.66 0.0
29 19:55 N 7 16.09 Light Rain FEW065 FEW075 SCT110 22 21 30 21.5 94% 76.66 0.0 0.15
29 19:35 SW 6 16.09 Light Rain SCT110 22 21 94% 76.66 0.0
29 19:15 E 9 9.66 Thunderstorm in Vicinity Rain Fog/Mist FEW070 SCT085 SCT110 22 21 94% 76.68 0.0
29 18:55 SE 11 4.83 Thunderstorm Rain Fog/Mist SCT023 SCT070 BKN085 22 22 100% 76.66 0.0 3.35
29 18:35 E 9 2.01 Thunderstorm Heavy Rain Fog/Mist FEW008 SCT014 23 22 94% 76.66 0.0
29 18:15 E 15 0.80 Thunderstorm in Vicinity Rain Fog VV005 23 22 94% 76.66 0.0
29 17:55 N 24 G 35 1.21 Thunderstorm Heavy Rain Fog/Mist SCT003 BKN007 BKN012 24 22 89% 24 76.71 0.0 3.51
29 17:35 SW 20 9.66 Thunderstorm in Vicinity Rain Haze BKN021 OVC030 26 23 84% 28 76.63 0.0
29 17:15 SE 9 16.09 Thunderstorm in Vicinity BKN030 OVC037 28 24 79% 32 76.61 0.0
29 16:55 E 6 16.09 Mostly Cloudy SCT030 SCT037 BKN048 29 23 70% 33 76.58 0.0
Date Time (edt) Wind (kph) Vis. (km) Weather Sky Cond. Air Dwpt Max. Min. Relative Humidity Wind Chill (°C) Heat Index (°C) altimeter (cm) sea level (mb) 1 hr 3 hr 6 hr
6 hour
Temperature (ºC) Pressure Precipitation (cm)